Torna al catalogo

STARLINK-32834

AttivoComunicazioniVLEO
NORAD 62875·PAYLOAD·🇺🇸 United States

Lanciato Feb 1, 2025 da Vandenberg Space Force Base

Loading…

Prossimi Passaggi (prossime 24 ore)

TLE

AggiornatoSource: CelesTrak SupGP

Epoca: Sep 14, 2026, 22:23 UTC

1 62875C 25022X   26257.93312500  .00005638  00000+0  16664-3 0  2578
2 62875  53.1586 327.4483 0001174  89.0460  89.4776 15.34375274    12

Traccia STARLINK-32834 in tempo reale con AllMySat

Download on the App Store